Content
SEND FEEDBACK

Daily
Averages
Monthly
Summary
Canada

MONTREAL, QUEBEC


Home > North America > Canada > Quebec
Elevation: 35 meters     Latitude: 45 28N     Longitude: 073 45W

WEATHER
 
SELECT A DAY
Number of Records: 198,773;   Date Range: 1/1/95 - 9/17/14
 
SHARE

PRINT THIS DATA

[ ← Previous Day ]
WEATHER ALMANAC - 14 SEPTEMBER, 2013
[ Next Day → ]
[ °F ]   °C
Weather ElementAverageHighLow
Temperature12.1 °C15 °C (3:00 pm)10 °C (6:00 am)
Dewpoint8.4 °C10 °C (1:00 am)7 °C (7:00 pm)
Humidity78.2 %88 % (1:00 am)61 % (2:00 pm)
Barometer1014.9 hPa1017.3 hPa (9:00 pm)1012.2 hPa (1:00 am)
Wind Speed13.5 km/h24.1 km/h (2:00 pm)
Wind Gust33.3 km/h (2:00 pm)
Weather ElementAverage
Visibility24.1 km
Wind DirectionWSW (258.9 °)

Weather ElementTotal
Precipitation---
Heating Degree Days5.8 (Base 18.3)
Growing Degree Days2.5 (Base 10)
Averaged from 27 records on 14 September, 2013
WEATHER CONDITIONS BREAKOUT
WIND DIRECTION BREAKOUT
WEATHER BY HOUR - 14 SEPTEMBER, 2013
[ °F ]   °C
Local TimeTemperatureDewpointHumidityBarometerVisibilityWind DirectionWind SpeedGust SpeedPrecipitationEventsConditions
1:00 AM12 °C10 °C88 %1012.2 hPa24.1 kmWNW (290°)11.1 km/hOvercast
2:00 AM11.7 °C9.4 °C84 %1012.5 hPa24.1 kmWNW (290°)7.4 km/hPartly Cloudy
2:00 AM12 °C10 °C88 %1012.5 hPa24.1 kmWNW (290°)5.6 km/hOvercast
3:00 AM11 °C9 °C88 %1012.5 hPa24.1 kmWNW (300°)11.1 km/hOvercast
4:00 AM11 °C9 °C88 %1012.9 hPa24.1 kmWest (280°)11.1 km/hOvercast
5:00 AM11 °C9 °C88 %1013.5 hPa24.1 kmWNW (290°)13 km/hOvercast
6:00 AM10 °C8 °C87 %1013.9 hPa24.1 kmWNW (300°)11.1 km/hMostly Cloudy
7:00 AM10 °C8 °C87 %1014.2 hPa24.1 kmWest (270°)5.6 km/hMostly Cloudy
8:00 AM10.6 °C8.3 °C83 %1014.9 hPa24.1 kmWSW (240°)9.3 km/hMostly Cloudy
8:00 AM11 °C9 °C88 %1014.9 hPa24.1 kmWSW (250°)9.3 km/hMostly Cloudy
9:00 AM11 °C9 °C88 %1015.2 hPa24.1 kmWest (260°)11.1 km/hOvercast
10:00 AM11 °C8 °C82 %1015.6 hPa24.1 kmWSW (250°)13 km/hOvercast
11:00 AM12 °C9 °C82 %1015.6 hPa24.1 kmSW (220°)18.5 km/hOvercast
12:00 PM13 °C8 °C72 %1015.6 hPa24.1 kmWSW (240°)16.7 km/hOvercast
1:00 PM13 °C8 °C72 %1015.6 hPa24.1 kmSW (230°)22.2 km/hOvercast
2:00 PM13.9 °C8.3 °C61 %1015.2 hPa24.1 kmWSW (250°)24.1 km/hOvercast
2:00 PM14 °C8 °C67 %1015.2 hPa24.1 kmWest (260°)22.2 km/h33.3 km/hOvercast
3:00 PM15 °C9 °C67 %1014.9 hPa24.1 kmWSW (240°)22.2 km/hOvercast
4:00 PM15 °C9 °C67 %1015.2 hPa24.1 kmWest (270°)22.2 km/h31.5 km/hOvercast
5:00 PM15 °C8 °C63 %1015.6 hPa24.1 kmWest (260°)18.5 km/h29.6 km/hOvercast
6:00 PM15 °C8 °C63 %1016.3 hPa24.1 kmWest (280°)13 km/hMostly Cloudy
7:00 PM14 °C7 °C63 %1016.6 hPa24.1 kmWest (270°)16.7 km/hScattered Clouds
8:00 PM11.7 °C7.8 °C68 %1016.9 hPa24.1 kmSW (230°)9.3 km/hScattered Clouds
8:00 PM11 °C8 °C82 %1016.9 hPa24.1 kmSW (230°)11.1 km/hPartly Cloudy
9:00 PM11 °C8 °C82 %1017.3 hPa24.1 kmWSW (240°)7.4 km/hPartly Cloudy
10:00 PM11 °C8 °C82 %1017.3 hPa24.1 kmSW (220°)9.3 km/hPartly Cloudy
11:00 PM10 °C7 °C82 %1017.3 hPa24.1 kmWSW (240°)11.1 km/hPartly Cloudy
Hourly data recorded from CYUL, located 0 kilometers away from Montreal, Quebec







STORIES FROM OUR PARTNERS